Regional Weather Roundup
Issued by NWS Tiyan, Guam

Home | Current Version | Previous Version | Text Only | Print | Product List | Glossary On
Versions: 1 2 3 4 5 6 7 8 9 10 11 12 13 14 15 16 17 18 19 20 21 22 23 24 25 26 27 28
000
ASGM40 PGUM 220512
RWRGUM
WEATHER ROUNDUP FOR THE MARIANAS
NATIONAL WEATHER SERVICE TIYAN GU
300 PM CHST MON JAN 22 2018

GUZ001>004-220600-
MARIANA ISLANDS-

CITY           SKY/WX    TMP DP  RH WIND       PRES   REMARKS
GUAM AIRPORT   MOSUNNY   88  75  66 E23G30    29.78F HX  97
ANDERSEN AFB   PTSUNNY   82  73  74 E20G25    29.79F
ROTA AIRPORT   MOSUNNY   82  73  74 E22G28    29.79F
TINIAN AP      MOSUNNY   84  75  74 E17       29.77F HX  92
SAIPAN AP      MOSUNNY   86  73  66 E20G29    29.78F HX  93

$$





USA.gov is the U.S. government's official web portal to all federal, state and local government web resources and services.